Location: Brantley
(31.5822°N, 86.2569°W)
Time: 01:27:34
(UTC+00:00)

Vanguard 2 - Pass Details

Date: 21 February 2026
Orbit: 553 x 2896 km, 32.9° (Epoch: 10 March)

Event Time Altitude Azimuth Distance (km) Brightness Sun altitude
Rises 10:58:27 0° 257° (WSW) 4,486 - -18.2°
Reaches altitude 10° 11:02:05 10° 257° (WSW) 3,133 - -17.4°
Exits shadow 11:05:04 24° 257° (WSW) 2,005 9.1 -16.8°
Maximum altitude 11:09:16 88° 170° (S) 830 7.6 -15.9°
Drops below altitude 10° 11:13:54 10° 80° (E) 2,060 11.0 -14.9°
Sets 11:15:52 0° 80° (E) 2,852 12.1 -14.5°
